Weather in Petropavlivka

Ukraine / Kharkiv Region     50°09′38″N   37°08′35″E
temp.,
°C
wind,
m/s
gust,
m/s
humid.,
%
clouds,
%
prec.,
mm/h
press.,
hPa
HPBL,
m
20 april, tue
tue2000:00+8ese4889100 0.2 1013179
03:00+9e358097 0.4 1012133
06:00+8ene3787100 0.2 1011282
09:00+9e51090100 0.4 1010476
12:00+11e5982100 0.4 1008708
15:00+10e71190100 3.2 1005719
18:00+10e61195100 8.6 1002759
21:00+9e1497100 13.6 1000207
21 april, wed
wed2100:00+10s5992100 2.6 999726
03:00+7wnw71294100 2.9 1002672
06:00+7w41092100 0.0 1006571
09:00+9wsw5787100 0.2 1009633
12:00+10wsw7973100 0.8 10111220
15:00+11wsw7106077 0.9 10131659
18:00+11sw476796 0.1 1014346
21:00+8ssw368760 0.6 1016182
22 april, thu
thu2200:00+7ssw379229 0.4 1016199
03:00+5sw23955 0.7 101850
06:00+5sw33915 0.0 101947
09:00+11sw35640 0.0 1020501
12:00+14sw465597 0.1 10201508
15:00+14sw4659100 0.5 1020766
18:00+13s3566100 0.0 1020120
21:00+12s3567100 0.0 102192
23 april, fri
fri2300:00+11s376892 0.0 1020137
03:00+11sse3770100 0.0 1020135
06:00+10s4876100 0.0 1020191
09:00+13s586786 0.0 1020490
12:00+16ssw685029 1.3 10191833
15:00+18ssw673969 1.3 10172598
18:00+16s475471 0.0 1016309
21:00+12s4969100 0.2 1016173
24 april, sat
sat2400:00+11ssw51269100 0.1 1015411
03:00+9ssw41087100 0.7 1014294
06:00+9ssw51088100 0.2 1012416
09:00+3wnw71296100 3.3 1014564
12:00+9wnw796452 0.9 10151484
15:00+11w71039100 1.1 10152780
18:00+9w7105734 0.2 10161526
21:00+6wsw356836 0.3 1017102